Portada
METAR-TAF:

METAR-TAF

Aeropuertos :

Aeropuerto Vanguardia

Villavicencio, Colombia

latitud: 04-10N, longitud: 073-37W, altitud: 423 m

Observación

El informe se hizo hace 16 horas y 48 minutos, a las 23:00 UTC
Viento calma
Temperatura 26°C
Humedad 70%
Presión 1015 hPa
Visibilidad 10 km o más
Nubes dispersas a una altura de 2000 ft, Cumulus congestus.
Nubes dispersas a una altura de 9000 ft

METAR: SKVV 202300Z 00000KT 9999 SCT020TCU SCT090 26/20 A2996 RMK TCU E/S

Hora: 10:48 (15:48 UTC)


TAF: falta

Observaciones y pronósticos meteorológicos de más de 4000 aeropuertos (mensajes METAR y TAF).

Los puntos amarillos y rojos representan las estaciones disponibles.

Ponga el ratón en el punto deseado para ver el nombre de la estación.

Haga clic para ver las observaciones y los pronósticos meteorológicos.

Para cambiar el mapa : haga clic en los botones verdes con una cruz de color negro para hacer un zoom, en el botón verde con un guión para alejar o en las flechas verdes para mapas adyacentes.


METAR-TAF: